Location: Newark
(40.9833°N, 0.0333°W)
Time: 20:53:29
(UTC+00:00)

Vanguard 2 Rocket - Pass Details

Date: 27 October 2020
Orbit: 553 x 3326 km, 32.9° (Epoch: 29 November)

Event Time Altitude Azimuth Distance (km) Brightness Sun altitude
Rises 00:48:58 0° 262° (W) 4,134 - -58.5°
Reaches altitude 10° 00:52:31 10° 244° (WSW) 3,576 - -58.2°
Maximum altitude 00:58:32 19° 204° (SSW) 3,593 - -57.5°
Drops below altitude 10° 01:06:42 10° 168° (SSE) 5,044 - -56.6°
Sets 01:13:23 0° 153° (SSE) 6,581 - -55.8°
